G7NPW-1 Weather Reports


time (UTC)temp
C
wind
direction
speed
KPH
gust
KPH
rain 1hr
cm
rain 24hr
cm
rain mn
cm
humidity
%
barometer
mb
20260904100004 17 260 35.4 35.4 0.00 0.00 0.00 72 1010.2
20260904095504 17 250 29.0 29.0 0.00 0.00 0.00 88 1009.1
20260904095004 17 250 29.0 29.0 0.00 0.00 0.00 88 1009.1
20260904094004 17 250 29.0 29.0 0.00 0.00 0.00 88 1009.1
20260904093004 17 250 29.0 29.0 0.00 0.00 0.00 88 1009.1
20260904092504 17 250 29.0 29.0 0.00 0.00 0.00 88 1009.1
20260904091504 17 250 29.0 29.0 0.00 0.00 0.00 88 1009.1
20260904085004 16 260 27.4 27.4 0.00 0.00 0.00 93 1008.1
20260904083503 16 260 27.4 27.4 0.00 0.00 0.00 93 1008.1
20260904082004 16 260 27.4 27.4 0.00 0.00 0.00 93 1008.1
20260904081005 16 260 27.4 27.4 0.00 0.00 0.00 93 1008.1
20260904080504 16 260 27.4 29.0 0.00 0.00 0.00 93 1008.1
20260904080004 16 260 27.4 29.0 0.00 0.00 0.00 93 1008.1
20260904075503 16 260 29.0 29.0 0.00 0.00 0.00 93 1008.1
20260904070504 16 260 29.0 29.0 0.00 0.00 0.00 93 1008.1
20260904065505 18 220 20.9 20.9 0.00 0.00 0.00 63 1011.9
20260904065004 18 220 20.9 20.9 0.00 0.00 0.00 63 1011.9
20260904064504 18 220 20.9 20.9 0.00 0.00 0.00 63 1011.9
20260904061004 18 220 20.9 20.9 0.00 0.00 0.00 63 1011.9
20260903203504 20 270 16.1 16.1 0.00 0.00 0.00 68 1012.9
20260903203004 20 270 16.1 16.1 0.00 0.00 0.00 68 1012.9
20260903202004 20 270 16.1 16.1 0.00 0.00 0.00 68 1012.9
20260903200503 20 270 16.1 16.1 0.00 0.00 0.00 68 1012.9
20260903195004 20 270 16.1 16.1 0.00 0.00 0.00 68 1012.9
20260903191504 20 270 16.1 16.1 0.00 0.00 0.00 68 1012.9
20260903191004 20 270 16.1 16.1 0.00 0.00 0.00 68 1012.9
20260903190504 20 270 16.1 20.9 0.00 0.00 0.00 68 1012.9
20260903190004 20 270 16.1 20.9 0.00 0.00 0.00 68 1012.9
20260903181503 22 270 20.9 20.9 0.00 0.00 0.00 60 1012.9
20260903181004 22 270 20.9 20.9 0.00 0.00 0.00 60 1012.9
20260903171503 22 270 20.9 20.9 0.00 0.00 0.00 60 1012.9
20260903171004 22 270 20.9 20.9 0.00 0.00 0.00 60 1012.9
20260903165504 23 240 33.8 33.8 0.00 0.00 0.00 50 1013.9
20260903163004 23 240 33.8 33.8 0.00 0.00 0.00 50 1013.9
20260903162503 23 240 33.8 33.8 0.00 0.00 0.00 50 1013.9
20260903162004 23 240 33.8 33.8 0.00 0.00 0.00 50 1013.9
20260903153504 22 250 27.4 27.4 0.00 0.00 0.00 56 1013.9
20260903153004 22 250 27.4 27.4 0.00 0.00 0.00 56 1013.9
20260903152504 22 250 27.4 27.4 0.00 0.00 0.00 56 1013.9
20260903151004 22 250 27.4 27.4 0.00 0.00 0.00 56 1013.9
20260903150504 22 250 27.4 32.2 0.00 0.00 0.00 56 1013.9
20260903150004 22 250 27.4 32.2 0.00 0.00 0.00 56 1013.9
20260903145503 22 260 32.2 32.2 0.00 0.00 0.00 53 1013.9
20260903144004 22 260 32.2 32.2 0.00 0.00 0.00 53 1013.9
20260903143504 22 260 32.2 32.2 0.00 0.00 0.00 53 1013.9
20260903142504 22 260 32.2 32.2 0.00 0.00 0.00 53 1013.9
20260903142004 22 260 32.2 32.2 0.00 0.00 0.00 53 1013.9
20260903141504 22 260 32.2 32.2 0.00 0.00 0.00 53 1013.9
20260903140004 22 260 32.2 32.2 0.00 0.00 0.00 53 1013.9
20260903135004 22 240 29.0 29.0 0.00 0.00 0.00 56 1014.9
20260903134504 22 240 29.0 29.0 0.00 0.00 0.00 56 1014.9
20260903133004 22 240 29.0 29.0 0.00 0.00 0.00 56 1014.9
20260903131503 22 240 29.0 29.0 0.00 0.00 0.00 56 1014.9
20260903125503 22 240 29.0 29.0 0.00 0.00 0.00 56 1014.9
20260903124004 22 240 29.0 29.0 0.00 0.00 0.00 56 1014.9
20260903123004 22 240 29.0 29.0 0.00 0.00 0.00 56 1014.9
20260903122004 22 240 29.0 29.0 0.00 0.00 0.00 56 1014.9
20260903121504 22 240 29.0 29.0 0.00 0.00 0.00 56 1014.9
20260903115004 21 250 33.8 33.8 0.00 0.00 0.00 60 1014.9
20260903114004 21 250 33.8 33.8 0.00 0.00 0.00 60 1014.9
20260903113004 21 250 33.8 33.8 0.00 0.00 0.00 60 1014.9
20260903112504 21 250 33.8 33.8 0.00 0.00 0.00 60 1014.9
20260903111504 21 250 33.8 33.8 0.00 0.00 0.00 60 1014.9
20260903111004 21 250 33.8 33.8 0.00 0.00 0.00 60 1014.9
20260903110004 21 250 33.8 33.8 0.00 0.00 0.00 60 1014.9
20260903105504 20 240 29.0 29.0 0.00 0.00 0.00 68 1014.9
20260903104503 20 240 29.0 29.0 0.00 0.00 0.00 68 1014.9
20260903103504 20 240 29.0 29.0 0.00 0.00 0.00 68 1014.9
20260903102004 20 240 29.0 29.0 0.00 0.00 0.00 68 1014.9
20260903101004 20 240 29.0 29.0 0.00 0.00 0.00 68 1014.9